Regional Weather Roundup
Issued by NWS

Home | Current Version | Previous Version | Graphics & Text | Print | Product List | Glossary On
Versions: 1 2 3 4 5 6 7 8 9 10 11 12 13 14 15 16 17 18 19 20 21 22 23 24 25 26 27 28 29 30 31 32 33 34 35 36 37 38 39 40 41 42 43 44 45 46 47 48 49 50
000
ASUS43 KLMK 290510
RWRKY
KENTUCKY REGIONAL WEATHER ROUNDUP
NATIONAL WEATHER SERVICE LOUISVILLE KY
100 AM EDT FRI JUL 29 2016

NOTE "FAIR" INDICATES FEW OR NO CLOUDS BELOW 12,000 FEET
WITH NO SIGNIFICANT WEATHER AND/OR OBSTRUCTIONS TO VISIBILITY.

KYZ001>023-026-027-061>063-070>075-290600-
WESTERN AND SOUTH CENTRAL KENTUCKY

CITY           SKY/WX    TMP DP  RH WIND       PRES   REMARKS
PADUCAH        PTCLDY    76  71  85 CALM      29.92R
HENDERSON      CLOUDY    72  68  88 CALM      29.90F
OWENSBORO      MOCLDY    73  73 100 SE5       29.93F
HOPKINSVILLE   MOCLDY    78  77  94 S5        29.92S
BOWLING GREEN  CLOUDY    77  73  87 CALM      29.93F
GLASGOW        PTCLDY    73  73 100 CALM      29.95S
$$

KYZ024-025-028>034-038-045-046-053-290600-
NORTH CENTRAL KENTUCKY

CITY           SKY/WX    TMP DP  RH WIND       PRES   REMARKS
LOUISVILLE/SDF CLOUDY    78  72  81 SW6       29.90F
LOUISVILLE/LOU CLOUDY    76  69  79 CALM      29.92S
FORT KNOX      MOCLDY    75  72  92 VRB3      29.91F
$$

KYZ035>037-039>044-047>052-055>060-089>105-290600-
NORTHEAST KENTUCKY

CITY           SKY/WX    TMP DP  RH WIND       PRES   REMARKS
LEXINGTON      PTCLDY    72  70  93 S5        29.95R
COVINGTON      PTCLDY    74  73  97 SW6       29.92S
FRANKFORT      PTCLDY    74  70  87 SW5       29.93R
$$

KYZ054-064>069-076>088-106>120-290600-
SOUTHEAST KENTUCKY

CITY           SKY/WX    TMP DP  RH WIND       PRES   REMARKS
JACKSON        FOG       70  69  97 CALM      29.98R VSB 1/2
LONDON         FOG       69  67  93 SW3       29.98R VSB 1/4
SOMERSET       CLOUDY    68  68 100 CALM      29.98S FOG
MIDDLESBORO    CLOUDY    69  69 100 CALM      30.00R
MONTICELLO     MOCLDY   N/A N/A N/A VRB6      29.99S
$$




USA.gov is the U.S. government's official web portal to all federal, state and local government web resources and services.